STAFFORD CR (P398) WA PSD current weather conditions

sailwx.info

Wind from 099 at 1 knots

Air temperature 8.5° C
Dewpoint 7.9° C

Last reported at 2020-Jan-25 12:40 UTC.
Time now 2020-Jan-25 14:55 UTC

Location: N 46°56' W 123°55'.
View on Google Maps.

See reports from other nearby stations

  
Tides and Currents Weather Stations Pressure Air Temp Water Temp Dewpoint Dewpoint Depression Visibility Wind Speed Wind Dir Waves Ship Positions
date/time (UTC)wind fromknots sea level pressurealtimeterstation pressurevisibilityair tempwater tempwave heightnotes
2020-Jan-25 12:40 099 1 8.5
2020-Jan-25 12:20 074 1 8.5
2020-Jan-25 11:40 108 2 8.6
2020-Jan-25 11:20 061 5 8.6
2020-Jan-25 09:40 085 0 8.8
2020-Jan-25 09:20 149 0 8.9
2020-Jan-25 08:40 069 2 9.0
2020-Jan-25 08:20 064 1 9.1
2020-Jan-25 06:40 156 0 9.6
2020-Jan-25 06:20 131 2 9.8
2020-Jan-25 05:40 146 1 9.9
2020-Jan-25 05:20 137 2 9.9
2020-Jan-25 04:40 114 3 9.9
2020-Jan-25 04:20 233 1 9.9
2020-Jan-25 03:40 166 6 9.9
2020-Jan-25 03:20 213 0 9.8
2020-Jan-24 22:40 176 1 11.0
2020-Jan-24 22:20 183 5 11.3
2020-Jan-24 21:40 207 8 10.5
2020-Jan-24 21:20 200 4 10.6
2020-Jan-24 19:40 178 18 10.6
2020-Jan-24 19:20 182 3 10.4
2020-Jan-24 17:40 195 6 9.8
2020-Jan-24 17:20 239 4 9.8
2020-Jan-24 16:00 106 2 10.0
2020-Jan-24 15:40 203 4 10.0
2020-Jan-24 15:20 239 5 10.0
2020-Jan-24 15:00 185 3 10.0
2020-Jan-24 14:40 185 2 10.1
2020-Jan-24 14:20 178 6 9.9
2020-Jan-24 12:40 194 3 9.8
2020-Jan-24 12:20 190 5 9.8
2020-Jan-24 10:40 235 6 10.2
2020-Jan-24 10:20 192 5 10.3
2020-Jan-24 09:40 221 1 10.5
2020-Jan-24 09:20 195 3 10.5
2020-Jan-24 07:40 185 5 10.6
2020-Jan-24 07:20 206 5 10.6
2020-Jan-24 06:40 185 1 10.6
2020-Jan-24 06:20 121 6 10.6
2020-Jan-24 04:40 199 4 10.8
2020-Jan-24 04:20 218 1 10.8
2020-Jan-24 03:40 163 3 10.9
2020-Jan-24 03:20 023 0 10.9
2020-Jan-23 22:40 129 5 11.2
2020-Jan-23 22:20 174 13 11.3
2020-Jan-23 21:40 216 9 11.4
2020-Jan-23 21:20 201 6 11.4
2020-Jan-23 18:40 199 9 11.2
2020-Jan-23 18:20 208 12 11.1
2020-Jan-23 18:00 214 5 11.1
2020-Jan-23 17:40 203 7 11.1
2020-Jan-23 17:20 184 10 11.1
2020-Jan-23 15:40 144 8 10.8
2020-Jan-23 15:20 161 5 10.8